This is the latest recevied weather packets stored in our database for station/object NY3Q. If no packets are shown the sender has not sent any weather packets the latest 10 day(s).
| Time | Temp. | Humidity | Pressure | Rain* | Wind** | Luminosity | Snow |
|---|---|---|---|---|---|---|---|
| 1777739876 | 22.22° C | 95% | 1009.2 hPa | 3.05 mm | - | 90 W/m² | - |
| 1777739269 | 21.67° C | 95% | 1009.5 hPa | 1.78 mm | - | 149 W/m² | - |
| 1777738663 | 21.11° C | 94% | 1009.4 hPa | 1.27 mm | - | 85 W/m² | - |
| 1777738058 | 21.11° C | 94% | 1009.6 hPa | 0 mm | - | 39 W/m² | - |
| 1777737757 | 21.11° C | 94% | 1010 hPa | 0 mm | - | 56 W/m² | - |
| 1777736235 | 20.56° C | 93% | 1009.7 hPa | 0 mm | - | 191 W/m² | - |
| 1777735931 | 20° C | 94% | 1009.8 hPa | 0 mm | - | 181 W/m² | - |
| 1777735629 | 20° C | 93% | 1010.2 hPa | 0 mm | - | 117 W/m² | - |
| 1777735326 | 20° C | 93% | 1010.3 hPa | 1.78 mm | - | 140 W/m² | - |
| 1777735023 | 19.44° C | 93% | 1010.2 hPa | 1.78 mm | - | 99 W/m² | - |
| 1777734721 | 19.44° C | 93% | 1010.7 hPa | 0 mm | - | 65 W/m² | - |
| 1777734418 | 19.44° C | 93% | 1010 hPa | 1.78 mm | - | 65 W/m² | - |
| 1777734114 | 19.44° C | 92% | 1009.2 hPa | 6.1 mm | - | 76 W/m² | - |
| 1777733811 | 19.44° C | 92% | 1010.1 hPa | 7.87 mm | - | 79 W/m² | - |
| 1777733507 | 19.44° C | 91% | 1010.4 hPa | 19.81 mm | - | 23 W/m² | - |
| 1777733203 | 19.44° C | 91% | 1011.2 hPa | 19.81 mm | - | 14 W/m² | - |
| 1777732900 | 20° C | 90% | 1011.8 hPa | 7.87 mm | - | 4 W/m² | - |
| 1777732597 | 20° C | 90% | 1010.6 hPa | 6.1 mm | - | 13 W/m² | - |
| 1777732295 | 20° C | 90% | 1011 hPa | 0 mm | - | 13 W/m² | - |
| 1777731992 | 20° C | 89% | 1010.5 hPa | 0 mm | - | 25 W/m² | - |
| 1777731688 | 20° C | 89% | 1010.6 hPa | 0 mm | - | 34 W/m² | - |
| 1777731386 | 20° C | 89% | 1010.7 hPa | 0 mm | - | 21 W/m² | - |
| 1777731083 | 20° C | 88% | 1010.2 hPa | 0 mm | - | 29 W/m² | - |
| 1777730782 | 20° C | 88% | 1009.9 hPa | 0 mm | - | 38 W/m² | - |
| 1777730478 | 20° C | 87% | 1010.4 hPa | 0 mm | - | 32 W/m² | - |
* Rain latest hour (hover to see other rain measurements)
** Current wind speed in m/s (hover to see current wind gust speed)